TimeICT,TemperatureF,Dew PointF,Humidity,Sea Level PressureIn,VisibilityMPH,Wind Direction,Wind SpeedMPH,Gust SpeedMPH,PrecipitationIn,Events,Conditions,WindDirDegrees,DateUTC
12:00 AM,86.0,77.0,74,29.74,6.2,WSW,11.5,-,N/A,,Mostly Cloudy,240,2013-05-01 17:00:00
12:30 AM,86.0,77.0,74,29.71,6.2,SW,9.2,-,N/A,,Mostly Cloudy,230,2013-05-01 17:30:00
1:00 AM,86.0,77.0,74,29.71,6.2,SW,6.9,-,N/A,,Mostly Cloudy,230,2013-05-01 18:00:00
1:30 AM,86.0,75.2,70,29.68,6.2,WSW,9.2,-,N/A,,Scattered Clouds,240,2013-05-01 18:30:00
2:00 AM,86.0,77.0,74,29.68,6.2,WSW,6.9,-,N/A,,Scattered Clouds,240,2013-05-01 19:00:00
2:30 AM,86.0,77.0,74,29.68,6.2,WSW,6.9,-,N/A,,Scattered Clouds,240,2013-05-01 19:30:00
3:30 AM,86.0,77.0,74,29.68,6.2,West,4.6,-,N/A,,Scattered Clouds,260,2013-05-01 20:30:00
4:00 AM,86.0,77.0,74,29.68,6.2,West,4.6,-,N/A,,Scattered Clouds,260,2013-05-01 21:00:00
4:30 AM,84.2,77.0,79,29.68,6.2,West,3.5,-,N/A,,Scattered Clouds,260,2013-05-01 21:30:00
5:00 AM,84.2,77.0,79,29.68,6.2,Calm,Calm,-,N/A,,Scattered Clouds,0,2013-05-01 22:00:00
5:30 AM,84.2,77.0,79,29.68,6.2,Calm,Calm,-,N/A,,Mostly Cloudy,0,2013-05-01 22:30:00
6:00 AM,82.4,77.0,84,29.71,5.6,Calm,Calm,-,N/A,,Mostly Cloudy,0,2013-05-01 23:00:00
6:30 AM,82.4,77.0,84,29.71,5.6,Calm,Calm,-,N/A,,Mostly Cloudy,0,2013-05-01 23:30:00
7:00 AM,84.2,77.0,79,29.71,5.6,Calm,Calm,-,N/A,,Mostly Cloudy,0,2013-05-02 00:00:00
7:30 AM,87.8,77.0,70,29.74,5.0,Calm,Calm,-,N/A,,Mostly Cloudy,0,2013-05-02 00:30:00
8:00 AM,89.6,77.0,66,29.74,5.0,Calm,Calm,-,N/A,,Mostly Cloudy,0,2013-05-02 01:00:00
8:30 AM,89.6,75.2,62,29.77,5.6,NNW,3.5,-,N/A,,Mostly Cloudy,330,2013-05-02 01:30:00
9:00 AM,89.6,75.2,62,29.77,5.6,WSW,3.5,-,N/A,,Mostly Cloudy,240,2013-05-02 02:00:00
9:30 AM,89.6,75.2,62,29.77,6.2,SE,3.5,-,N/A,,Mostly Cloudy,140,2013-05-02 02:30:00
10:00 AM,93.2,75.2,56,29.77,6.2,SSW,3.5,-,N/A,,Scattered Clouds,200,2013-05-02 03:00:00
10:30 AM,91.4,75.2,59,29.74,6.2,SSW,3.5,-,N/A,,Scattered Clouds,200,2013-05-02 03:30:00
11:00 AM,95.0,73.4,49,29.74,6.2,South,4.6,-,N/A,,Scattered Clouds,170,2013-05-02 04:00:00
11:30 AM,93.2,71.6,49,29.74,6.2,South,6.9,-,N/A,,Scattered Clouds,180,2013-05-02 04:30:00
12:00 PM,96.8,71.6,44,29.71,6.2,West,3.5,-,N/A,,Scattered Clouds,260,2013-05-02 05:00:00
12:30 PM,96.8,71.6,44,29.71,6.2,NE,5.8,-,N/A,,Scattered Clouds,40,2013-05-02 05:30:00
1:00 PM,98.6,69.8,39,29.68,6.2,NNE,4.6,-,N/A,,Scattered Clouds,30,2013-05-02 06:00:00
1:30 PM,98.6,68.0,37,29.68,6.2,SSW,6.9,-,N/A,,Mostly Cloudy,200,2013-05-02 06:30:00
2:00 PM,96.8,73.4,47,29.65,6.2,South,9.2,-,N/A,,Mostly Cloudy,180,2013-05-02 07:00:00
2:30 PM,95.0,75.2,53,29.65,6.2,SSW,9.2,-,N/A,,Mostly Cloudy,200,2013-05-02 07:30:00
3:00 PM,95.0,73.4,49,29.65,6.2,SW,9.2,-,N/A,,Mostly Cloudy,230,2013-05-02 08:00:00
3:30 PM,95.0,75.2,53,29.62,6.2,SW,9.2,-,N/A,,Mostly Cloudy,220,2013-05-02 08:30:00
4:00 PM,93.2,75.2,56,29.62,6.2,SSW,9.2,-,N/A,,Mostly Cloudy,200,2013-05-02 09:00:00
4:30 PM,93.2,75.2,56,29.62,6.2,SW,9.2,-,N/A,,Mostly Cloudy,230,2013-05-02 09:30:00
5:00 PM,93.2,75.2,56,29.62,6.2,SW,9.2,-,N/A,,Mostly Cloudy,230,2013-05-02 10:00:00
5:30 PM,91.4,75.2,59,29.62,6.2,SSW,9.2,-,N/A,,Mostly Cloudy,200,2013-05-02 10:30:00
6:00 PM,91.4,77.0,63,29.62,6.2,SW,9.2,-,N/A,,Mostly Cloudy,220,2013-05-02 11:00:00
6:30 PM,89.6,77.0,66,29.62,6.2,SSW,3.5,-,N/A,,Mostly Cloudy,200,2013-05-02 11:30:00
7:00 PM,89.6,77.0,66,29.62,6.2,SW,3.5,-,N/A,,Mostly Cloudy,220,2013-05-02 12:00:00
7:30 PM,87.8,77.0,70,29.65,6.2,SSW,3.5,-,N/A,,Scattered Clouds,210,2013-05-02 12:30:00
8:00 PM,87.8,77.0,70,29.65,6.2,SSW,3.5,-,N/A,,Scattered Clouds,200,2013-05-02 13:00:00
8:30 PM,87.8,77.0,70,29.65,6.2,SSW,3.5,-,N/A,,Scattered Clouds,210,2013-05-02 13:30:00
9:00 PM,87.8,77.0,70,29.65,6.2,SSW,3.5,-,N/A,,Scattered Clouds,210,2013-05-02 14:00:00
9:30 PM,87.8,77.0,70,29.68,6.2,SW,4.6,-,N/A,,Scattered Clouds,220,2013-05-02 14:30:00
10:00 PM,87.8,77.0,70,29.68,6.2,SW,4.6,-,N/A,,Scattered Clouds,220,2013-05-02 15:00:00
10:30 PM,87.8,75.2,66,29.71,6.2,SW,4.6,-,N/A,,Scattered Clouds,230,2013-05-02 15:30:00
11:00 PM,87.8,77.0,70,29.71,6.2,SW,4.6,-,N/A,,Scattered Clouds,230,2013-05-02 16:00:00
11:30 PM,87.8,77.0,70,29.71,6.2,SW,6.9,-,N/A,,Scattered Clouds,230,2013-05-02 16:30:00